Tobyhanna, PA

1:22 AM EST on February 25, 2017 (GMT -0500)
Pocono Mountains Municipal

Weather History for KMPO - June, 2013

Change the Weather History Date:

Saturday, June 22, 2013

  Actual Average Record
Temperature  
Mean Temperature 66 °F 66 °F  
Max Temperature 78 °F 76 °F 90 °F (1908)
Min Temperature 53 °F 56 °F 35 °F (1940)
Degree Days  
Heating Degree Days 0 2  
Month to date heating degree days 76 88  
Since 1 June heating degree days 76 88  
Since 1 July heating degree days 6828 7104  
Cooling Degree Days 1 3  
Month to date cooling degree days 26 37  
Year to date cooling degree days 58 56  
Since 1 June cooling degree days 26 37  
Growing Degree Days 16 (Base 50)    
Moisture  
Dew Point 57 °F    
Average Humidity 67    
Maximum Humidity 84    
Minimum Humidity 49    
Precipitation  
Precipitation 0.00 in 0.10 in 1.30 in (1918)
Month to date precipitation 7.06 3.42  
Year to date precipitation 21.07 20.92  
Sea Level Pressure  
Sea Level Pressure 30.23 in    
Wind  
Wind Speed 7 mph (WSW)    
Max Wind Speed 15 mph    
Max Gust Speed 21 mph    
Visibility 10 miles    
Events      
T = Trace of Precipitation, MM = Missing Value Source: NWS Daily Summary

Daily Weather History Graph

Daily Weather History Graph

Search for Another Location

Airport or City:

Trip Planner

Search our weather history database for the weather conditions in past years. The results will help you decide how hot, cold, wet, or windy it might be!

Date:

Astronomy

Jun. 22, 2013 Rise Set
Actual Time 5:29 AM EDT 8:37 PM EDT
Civil Twilight 4:55 AM EDT 9:11 PM EDT
Nautical Twilight 4:12 AM EDT 9:54 PM EDT
Astronomical Twilight 3:20 AM EDT 10:46 PM EDT
Moon 7:49 PM EDT (6/22) 4:40 AM EDT (6/22)
Length of Visible Light 16h 16m
Length of Day
15h 08m
Waxing Gibbous, 99% of the Moon is Illuminated
Jun 22
Waxing Gibbous
Jun 23
Full
Jun 30
Last Quarter
Jul 8
New
Jul 15
First Quarter

Hourly Weather History & Observations

Time (EDT) Temp. Dew Point Humidity Pressure Visibility Wind Dir Wind Speed Gust Speed Precip Events Conditions
12:53 AM 63.0 °F 52.0 °F 67% 30.26 in 10.0 mi West 5.8 mph - N/A   Clear
1:53 AM 61.0 °F 51.1 °F 70% 30.26 in 10.0 mi WNW 4.6 mph - N/A   Clear
2:53 AM 59.0 °F 51.1 °F 75% 30.26 in 10.0 mi WNW 4.6 mph - N/A   Clear
3:53 AM 57.9 °F 50.0 °F 75% 30.26 in 10.0 mi WNW 4.6 mph - N/A   Clear
4:53 AM 57.0 °F 51.1 °F 81% 30.26 in 10.0 mi WNW 4.6 mph - N/A   Clear
5:53 AM 53.1 °F 48.9 °F 86% 30.26 in 10.0 mi Calm Calm - N/A   Clear
6:53 AM 60.1 °F 53.1 °F 78% 30.24 in 10.0 mi Calm Calm - N/A   Clear
7:53 AM 64.9 °F 57.9 °F 78% 30.25 in 10.0 mi WSW 4.6 mph - N/A   Clear
8:53 AM 68.0 °F 57.0 °F 68% 30.26 in 10.0 mi West 9.2 mph - N/A   Clear
9:53 AM 71.1 °F 55.0 °F 57% 30.27 in 10.0 mi Variable 6.9 mph - N/A   Clear
10:53 AM 73.0 °F 54.0 °F 51% 30.26 in 8.0 mi WSW 8.1 mph - N/A   Clear
11:53 AM 73.9 °F 55.0 °F 52% 30.28 in 10.0 mi West 10.4 mph 16.1 mph N/A   Clear
12:53 PM 75.9 °F 57.0 °F 52% 30.27 in 10.0 mi SW 9.2 mph - N/A   Partly Cloudy
1:53 PM 77.0 °F 60.1 °F 56% 30.23 in 10.0 mi WSW 11.5 mph 19.6 mph N/A   Clear
2:53 PM 78.1 °F 59.0 °F 52% 30.23 in 10.0 mi SW 8.1 mph 18.4 mph N/A   Scattered Clouds
3:10 PM 78.8 °F 59.0 °F 51% 30.25 in 10.0 mi SSW 10.4 mph 17.3 mph N/A   Scattered Clouds
3:53 PM 78.1 °F 60.1 °F 54% 30.21 in 10.0 mi SW 10.4 mph 20.7 mph N/A   Clear
4:33 PM 77.0 °F 62.6 °F 61% 30.22 in 10.0 mi SW 11.5 mph 16.1 mph N/A   Mostly Cloudy
4:53 PM 77.0 °F 61.0 °F 58% 30.20 in 10.0 mi SW 9.2 mph 17.3 mph N/A   Mostly Cloudy
5:53 PM 77.0 °F 61.0 °F 58% 30.18 in 10.0 mi SW 6.9 mph - N/A   Clear
6:53 PM 75.9 °F 62.1 °F 62% 30.16 in 10.0 mi SW 8.1 mph - N/A   Clear
7:53 PM 73.9 °F 62.1 °F 66% 30.16 in 10.0 mi SSW 4.6 mph - N/A   Clear
8:53 PM 72.0 °F 63.0 °F 73% 30.16 in 10.0 mi SW 4.6 mph - N/A   Clear
9:53 PM 70.0 °F 63.0 °F 78% 30.18 in 10.0 mi SW 6.9 mph - N/A   Clear
10:53 PM 70.0 °F 63.0 °F 78% 30.19 in 10.0 mi SW 5.8 mph - N/A   Clear
11:53 PM 69.1 °F 64.0 °F 84% 30.19 in 10.0 mi WSW 6.9 mph - N/A   Clear